Wind_Speed
16 16 16 16 15 14 14 13 13 12 12 10 10 11 11 11 11 11 10 9 9 9 8 9 9 9 9 9 9 10 9 9 8 8 8 9 9 9 9 9 10 10 10 10
17 17 17 16 16 15 15 14 13 13 12 12 11 12 12 12 12 12 11 10 10 10 10 10 10 10 10 10 10 10 10 10 9 9 10 10 10 10 11 11 11 12 12 12
18 18 18 16 15 16 15 15 15 14 13 13 13 13 13 13 13 13 12 11 11 11 11 11 11 11 11 11 12 12 11 11 10 11 11 11 11 11 12 12 11 12 13 13
20 19 19 17 16 16 16 16 16 15 15 15 15 15 15 15 14 14 14 13 13 13 13 13 12 12 12 12 12 12 12 12 12 12 12 12 12 13 13 13 13 13 13 13
22 21 20 18 17 17 17 16 16 16 16 17 16 16 16 16 16 15 14 14 14 14 14 13 13 13 14 14 13 13 13 14 14 14 13 14 14 14 14 14 15 15 14 14
23 23 22 19 19 19 19 18 18 18 18 18 18 17 17 17 17 17 16 16 15 15 15 15 14 14 14 14 14 14 14 14 14 14 14 15 15 15 16 16 16 16 16 16
24 24 23 21 21 20 20 19 19 19 19 19 19 19 19 19 19 19 18 17 16 16 15 15 15 15 15 15 15 15 15 15 14 15 15 16 16 17 17 17 17 17 17 17
25 25 24 22 22 22 21 21 20 20 20 20 20 20 20 20 20 20 20 19 18 17 17 16 16 16 16 16 15 15 16 17 16 16 16 17 17 17 18 18 18 18 18 19
26 25 24 23 22 23 23 22 21 21 21 21 21 21 21 21 21 21 21 21 20 20 19 19 19 18 17 17 17 16 17 17 17 17 18 18 18 18 19 18 18 19 19 20
26 25 24 24 23 23 23 23 23 22 22 23 22 22 22 22 22 21 21 22 21 21 21 20 20 20 19 20 19 19 18 18 19 19 18 19 19 19 19 19 19 19 20 20
26 24 24 25 24 24 24 24 24 23 23 23 23 23 23 23 23 23 23 22 23 23 23 23 22 22 22 22 22 21 21 21 20 19 19 19 19 19 19 19 19 20 20 20
27 26 26 26 26 26 25 25 25 25 24 23 23 23 23 23 23 23 23 23 23 24 24 24 24 23 23 23 23 23 23 22 21 21 21 20 20 20 20 19 20 20 21 21
29 28 28 28 28 27 27 26 26 26 26 25 25 25 24 24 24 24 24 24 23 23 24 24 24 24 25 25 25 25 24 24 23 23 23 22 21 21 21 21 22 22 22 23
30 30 29 29 29 29 28 27 26 26 26 26 26 26 26 25 25 25 25 25 25 25 25 25 25 25 26 26 26 25 25 25 24 24 24 24 23 23 22 22 23 23 24 24
31 31 30 30 30 29 29 28 27 27 27 27 27 27 27 26 26 26 26 27 27 27 26 26 26 26 27 26 26 25 25 25 25 25 25 25 25 25 24 25 25 25 25 26
32 32 32 31 30 29 29 29 28 28 28 28 28 28 28 27 27 27 27 28 28 28 28 27 27 27 27 26 26 26 26 26 26 26 26 26 26 25 26 26 26 27 27 27
32 32 32 31 30 30 30 29 29 28 29 29 29 29 28 28 28 28 28 28 28 29 29 28 28 28 28 27 27 27 27 27 27 27 27 27 26 27 27 28 28 27 27 27
33 33 32 32 31 31 30 30 29 29 29 29 29 30 30 30 30 29 29 28 29 29 29 30 30 30 29 29 28 28 29 29 29 28 28 28 28 28 28 29 29 29 28 29
33 33 32 32 32 31 31 31 31 31 31 30 30 31 31 31 30 30 30 30 29 30 31 30 30 30 29 29 30 29 29 30 30 30 29 29 29 29 29 29 29 29 30 30
35 34 34 33 32 32 32 32 32 32 32 31 31 31 31 31 31 31 31 30 30 29 29 30 30 30 30 30 30 30 30 30 30 30 30 30 30 30 30 30 30 30 30 30
35 35 35 35 34 33 33 33 33 33 33 32 32 31 32 32 32 32 32 31 31 30 30 29 29 30 31 31 31 31 31 31 31 31 31 31 31 31 31 31 31 32 32 32
33 34 34 34 34 34 34 34 35 35 34 34 34 33 33 33 33 33 33 32 32 32 31 31 31 31 31 31 30 30 30 31 31 32 32 32 32 32 32 32 32 33 33 33
33 34 34 35 35 35 36 37 37 37 37 36 36 36 35 35 34 34 33 33 32 32 32 32 31 31 31 32 32 31 32 32 32 33 33 34 33 33 33 33 33 33 33 33
34 35 36 36 36 36 36 37 38 37 38 37 37 37 37 36 35 35 34 34 34 33 32 32 33 33 33 33 33 34 34 34 34 34 35 35 34 34 34 33 34 34 35 35
35 35 35 36 36 36 37 37 37 37 38 38 38 37 37 36 36 36 35 35 35 34 34 34 34 34 34 34 35 35 36 36 36 36 36 36 35 35 35 35 35 35 35 35
35 35 36 37 38 38 38 38 38 38 38 38 38 37 37 37 37 37 37 36 36 36 35 35 36 36 36 36 36 36 36 37 37 36 36 36 36 36 36 36 36 36 36 36
35 35 36 37 37 37 38 38 38 38 38 37 37 37 37 37 37 37 37 36 36 36 37 37 37 37 37 36 36 36 37 37 37 36 36 37 37 38 38 37 37 37 37 37
Wind_Direction
266 267 266 268 270 273 276 279 281 284 286 286 286 288 289 287 285 285 280 278 277 275 275 268 263 261 260 255 253 255 258 261 262 261 261 266 271 272 277 279 279 279 281 282
264 266 265 265 267 269 270 274 277 280 281 282 282 283 285 284 281 281 280 279 275 272 268 264 261 260 259 257 256 255 257 259 260 263 264 266 270 272 274 279 279 277 279 282
262 266 266 266 268 268 268 270 274 276 279 280 281 281 282 284 282 277 277 275 272 269 264 262 258 257 260 259 257 254 253 255 259 263 267 269 269 271 272 275 278 278 280 281
261 263 265 267 268 269 268 269 272 274 274 277 280 279 279 280 279 276 275 272 271 270 266 263 260 258 259 260 257 253 252 254 258 263 268 271 273 274 276 277 278 280 280 279
260 261 265 267 269 269 269 269 271 272 273 276 278 279 277 277 276 277 275 272 270 268 265 265 264 261 261 260 258 257 257 259 262 266 269 272 274 276 277 279 279 278 279 279
262 262 263 265 268 270 271 270 271 271 270 272 275 275 274 274 272 273 274 273 269 269 265 262 263 263 262 261 261 261 262 264 265 266 269 272 273 275 277 278 278 277 277 279
263 263 262 264 267 269 270 272 272 270 269 270 273 273 271 270 270 272 273 273 269 267 266 263 263 263 263 262 262 264 264 264 267 269 271 273 274 275 276 277 277 276 278 279
263 264 263 264 265 267 271 272 270 268 268 270 271 271 271 271 271 271 271 270 268 265 264 261 260 261 262 262 263 266 266 265 267 270 272 275 276 277 276 276 276 278 280 280
263 265 265 264 264 265 267 268 267 266 267 269 269 269 270 271 271 269 268 268 266 263 262 263 261 259 259 262 265 266 267 267 269 272 274 275 276 276 277 277 277 279 281 282
260 262 264 263 263 264 266 267 266 266 267 268 268 268 268 269 269 269 270 269 265 262 260 260 260 258 258 261 263 267 268 269 271 273 274 274 274 276 277 277 277 278 281 284
259 261 263 262 263 265 266 266 265 264 265 267 267 268 268 268 268 269 270 269 265 262 260 258 258 258 259 260 262 265 267 266 269 271 273 274 275 277 277 276 276 278 279 282
260 260 262 261 262 264 265 265 265 264 263 265 267 267 267 267 267 268 267 267 266 262 260 258 258 259 260 260 263 266 266 264 265 269 272 274 275 275 276 277 278 279 279 281
259 259 259 259 260 261 264 265 265 265 266 266 267 268 268 268 267 267 266 268 267 264 261 259 258 260 261 261 263 264 265 264 264 267 270 271 273 275 276 276 278 281 282 283
257 258 258 258 259 261 263 265 266 266 265 265 266 268 268 269 269 268 267 268 267 266 265 262 260 261 262 262 263 264 265 263 263 265 268 269 272 274 275 276 278 279 282 285
255 255 257 258 258 260 263 264 265 264 264 265 267 268 268 267 268 267 267 266 266 267 267 265 263 263 263 263 263 263 264 264 263 264 266 268 269 271 274 276 278 280 282 286
253 254 256 257 258 260 262 264 264 263 263 265 266 268 268 267 267 268 267 266 266 267 267 266 265 264 264 263 262 262 262 263 264 264 264 266 267 270 273 275 276 278 282 284
253 255 256 257 258 259 260 261 261 262 263 264 266 267 268 268 267 267 266 267 266 266 265 265 264 263 263 263 264 263 262 262 263 263 265 266 268 271 273 275 276 278 281 282
255 256 256 256 257 259 259 260 262 263 264 264 265 266 267 267 267 266 267 267 267 267 266 265 264 265 264 264 264 264 263 262 263 264 265 267 269 272 274 275 276 277 279 281
255 254 254 255 257 258 259 259 261 263 264 265 264 264 265 266 266 266 267 268 268 267 266 264 264 264 263 263 263 265 265 264 264 265 265 266 268 270 272 274 276 278 280 281
255 254 254 255 257 258 259 259 261 262 263 265 265 264 265 266 266 266 266 266 267 266 265 264 263 263 263 264 265 265 266 266 265 265 265 266 267 269 271 272 274 277 280 282
254 254 255 256 257 258 259 260 261 261 262 263 265 266 267 267 267 266 265 264 265 265 264 263 263 264 264 265 265 265 265 265 265 264 265 267 267 269 270 272 274 276 279 281
254 254 255 256 257 259 260 261 260 260 261 262 264 266 266 267 266 265 263 263 263 263 263 263 263 263 264 264 264 264 264 264 265 264 265 267 269 270 271 273 275 277 279 280
253 254 255 257 259 260 261 261 261 261 262 263 265 265 266 266 265 263 262 261 262 262 262 263 263 263 263 262 263 264 264 264 266 266 267 268 269 270 272 273 275 276 278 280
254 254 255 257 259 260 261 261 261 261 262 263 264 264 264 264 262 261 260 260 260 261 262 262 263 263 264 264 264 264 264 265 266 268 269 269 270 271 272 274 275 276 278 280
256 256 257 258 259 261 262 262 262 262 262 263 263 264 262 261 261 260 260 261 260 261 263 263 264 264 265 265 265 265 265 266 267 269 270 270 270 271 272 274 276 277 278 280
257 258 259 261 261 262 263 263 264 263 263 263 263 262 261 261 260 260 261 262 261 261 263 265 265 265 265 266 266 267 267 267 268 269 269 269 269 269 271 273 274 276 278 281
259 260 261 262 263 263 264 264 264 263 263 262 262 261 261 261 261 261 261 262 262 263 264 266 266 267 267 267 267 267 267 268 268 268 269 270 270 270 271 272 274 276 279 282
Height
5845 5846 5846 5846 5847 5847 5847 5846 5846 5847 5846 5846 5845 5844 5843 5843 5842 5841 5841 5841 5840 5840 5840 5840 5840 5841 5841 5841 5842 5842 5843 5844 5844 5845 5845 5846 5846 5846 5846 5846 5846 5845 5845 5845
5841 5841 5841 5842 5843 5843 5843 5843 5843 5843 5843 5843 5842 5841 5841 5840 5839 5839 5838 5838 5838 5838 5838 5837 5838 5838 5838 5839 5839 5839 5840 5841 5842 5842 5843 5843 5843 5843 5843 5843 5843 5842 5842 5842
5836 5836 5837 5838 5840 5839 5839 5839 5840 5840 5841 5839 5839 5838 5838 5837 5837 5836 5836 5835 5835 5835 5835 5835 5835 5835 5835 5836 5836 5837 5837 5838 5839 5839 5840 5840 5840 5840 5840 5840 5839 5839 5839 5838
5830 5832 5832 5837 5835 5835 5835 5835 5836 5836 5836 5835 5835 5835 5834 5834 5833 5833 5833 5832 5832 5831 5832 5832 5832 5832 5832 5833 5833 5834 5834 5835 5835 5836 5836 5836 5837 5837 5836 5836 5836 5835 5835 5835
5824 5825 5827 5830 5830 5830 5830 5831 5831 5831 5831 5831 5831 5830 5830 5830 5829 5829 5829 5828 5828 5828 5828 5828 5828 5829 5829 5829 5830 5830 5831 5832 5832 5832 5832 5833 5833 5833 5832 5832 5832 5831 5831 5830
5818 5819 5821 5825 5825 5824 5825 5826 5826 5826 5826 5825 5825 5826 5826 5825 5825 5824 5824 5824 5824 5824 5824 5824 5825 5825 5825 5826 5826 5827 5827 5827 5828 5828 5828 5828 5828 5828 5828 5828 5827 5827 5826 5826
5812 5812 5814 5818 5819 5819 5820 5822 5820 5820 5820 5820 5820 5821 5821 5820 5820 5819 5819 5819 5819 5819 5820 5820 5820 5821 5821 5822 5822 5823 5823 5823 5823 5824 5824 5824 5824 5823 5823 5823 5823 5822 5822 5821
5806 5806 5811 5812 5812 5813 5814 5813 5813 5813 5814 5814 5814 5814 5814 5814 5814 5814 5814 5814 5814 5815 5815 5816 5816 5816 5817 5818 5818 5818 5819 5819 5819 5819 5819 5819 5818 5818 5818 5818 5817 5817 5816 5816
5800 5802 5803 5804 5805 5805 5806 5806 5806 5807 5807 5808 5808 5808 5808 5808 5808 5808 5808 5808 5809 5809 5810 5811 5811 5812 5812 5813 5813 5813 5814 5814 5814 5813 5813 5813 5813 5813 5812 5812 5812 5812 5811 5811
5792 5794 5795 5796 5797 5798 5798 5799 5799 5800 5801 5801 5801 5801 5801 5801 5802 5802 5802 5802 5802 5803 5804 5804 5805 5806 5807 5807 5808 5808 5808 5808 5808 5808 5808 5808 5807 5807 5807 5806 5806 5806 5806 5805
5784 5787 5788 5789 5790 5791 5791 5791 5792 5792 5793 5793 5794 5794 5794 5795 5795 5795 5795 5795 5795 5796 5797 5798 5798 5799 5800 5801 5801 5802 5802 5803 5802 5802 5802 5802 5802 5801 5801 5800 5800 5800 5799 5799
5777 5780 5780 5782 5782 5783 5784 5784 5784 5785 5785 5786 5786 5787 5787 5787 5788 5788 5788 5788 5788 5789 5790 5791 5791 5792 5793 5794 5794 5795 5796 5796 5796 5796 5796 5796 5796 5795 5795 5795 5794 5794 5793 5793
5769 5770 5772 5773 5774 5775 5776 5776 5777 5777 5778 5778 5779 5779 5780 5780 5780 5781 5781 5781 5781 5782 5782 5783 5784 5785 5786 5786 5787 5788 5788 5789 5790 5790 5790 5790 5789 5789 5789 5788 5788 5787 5786 5786
5760 5761 5763 5765 5766 5767 5768 5768 5769 5770 5770 5771 5771 5771 5772 5772 5773 5773 5773 5774 5774 5775 5775 5776 5777 5778 5778 5779 5780 5780 5781 5781 5782 5783 5783 5783 5783 5783 5782 5782 5781 5780 5780 5779
5751 5753 5754 5756 5757 5758 5759 5760 5761 5762 5762 5763 5763 5764 5764 5764 5765 5765 5766 5766 5766 5767 5767 5768 5769 5770 5770 5771 5772 5773 5774 5774 5775 5775 5775 5776 5776 5775 5775 5775 5774 5773 5773 5771
5742 5743 5745 5747 5748 5749 5750 5751 5752 5753 5754 5754 5755 5755 5755 5756 5756 5757 5757 5757 5758 5758 5759 5760 5761 5762 5762 5763 5764 5765 5766 5766 5767 5767 5767 5768 5768 5768 5768 5767 5767 5766 5765 5764
5732 5734 5736 5737 5739 5740 5741 5743 5743 5744 5745 5746 5746 5747 5747 5747 5748 5748 5748 5748 5749 5750 5750 5751 5752 5753 5754 5755 5756 5756 5757 5758 5758 5759 5759 5759 5759 5759 5759 5759 5759 5758 5757 5756
5723 5725 5727 5729 5730 5732 5733 5734 5735 5735 5736 5737 5737 5737 5738 5738 5739 5739 5739 5740 5740 5741 5742 5743 5744 5744 5745 5746 5747 5748 5749 5749 5750 5750 5750 5751 5751 5751 5751 5750 5750 5749 5748 5747
5714 5716 5718 5719 5721 5722 5724 5725 5726 5726 5727 5728 5728 5728 5729 5729 5730 5730 5731 5731 5731 5732 5733 5733 5734 5735 5736 5737 5738 5738 5739 5740 5740 5741 5741 5742 5742 5742 5742 5741 5741 5740 5740 5739
5704 5706 5708 5710 5711 5713 5714 5715 5716 5717 5718 5718 5719 5719 5719 5720 5720 5720 5721 5722 5722 5723 5723 5724 5725 5726 5727 5728 5729 5729 5730 5730 5730 5731 5732 5732 5732 5733 5733 5732 5732 5731 5730 5729
5694 5696 5698 5700 5702 5703 5705 5706 5707 5708 5708 5709 5709 5710 5710 5710 5710 5711 5711 5712 5713 5713 5714 5715 5716 5716 5717 5718 5719 5720 5720 5720 5721 5721 5722 5722 5722 5723 5723 5723 5722 5722 5721 5720
5684 5686 5688 5690 5691 5693 5694 5695 5696 5697 5698 5699 5700 5700 5700 5700 5701 5701 5702 5703 5703 5704 5705 5705 5706 5707 5708 5708 5709 5710 5710 5711 5711 5711 5712 5712 5712 5713 5712 5712 5712 5711 5710 5709
5674 5676 5677 5679 5681 5682 5683 5684 5685 5686 5688 5689 5689 5690 5690 5691 5691 5691 5692 5693 5694 5694 5695 5696 5696 5697 5697 5698 5699 5699 5700 5700 5701 5701 5701 5702 5702 5702 5702 5702 5702 5701 5700 5699
5663 5665 5667 5668 5670 5671 5672 5673 5674 5675 5676 5677 5678 5679 5679 5679 5680 5681 5682 5682 5683 5684 5684 5685 5686 5686 5687 5687 5688 5688 5689 5689 5690 5690 5691 5691 5691 5691 5691 5691 5690 5690 5689 5688
5653 5654 5656 5657 5659 5660 5661 5662 5663 5664 5665 5666 5667 5667 5668 5668 5669 5670 5671 5672 5672 5673 5674 5674 5675 5675 5675 5676 5676 5677 5677 5678 5678 5679 5679 5679 5679 5679 5679 5679 5679 5678 5678 5676
5642 5643 5645 5646 5647 5648 5649 5650 5651 5652 5653 5654 5655 5655 5656 5657 5658 5659 5660 5661 5661 5662 5662 5663 5663 5663 5664 5664 5664 5665 5665 5666 5666 5667 5667 5667 5667 5667 5668 5668 5667 5667 5666 5665
5631 5632 5634 5635 5636 5637 5638 5639 5639 5640 5641 5642 5643 5644 5645 5645 5646 5647 5648 5649 5649 5650 5651 5651 5651 5651 5652 5652 5652 5653 5653 5653 5654 5654 5655 5655 5655 5655 5655 5655 5655 5654 5654 5653